Ozark, AL

6:59 PM CDT on May 27, 2017 (GMT -0500)
Cairns Army Air Field

Weather History for KOZR - November, 2011

Change the Weather History Date:

Tuesday, November 22, 2011

  Actual Average Record
Temperature  
Mean Temperature 70 °F -  
Max Temperature 80 °F 65 °F 80 °F (2011)
Min Temperature 59 °F 43 °F 23 °F (2000)
Cooling Degree Days 4    
Growing Degree Days 20 (Base 50)    
Moisture  
Dew Point 65 °F    
Average Humidity 90    
Maximum Humidity 100    
Minimum Humidity 59    
Precipitation  
Precipitation 0.03 in - - ()
Sea Level Pressure  
Sea Level Pressure 30.08 in    
Wind  
Wind Speed 6 mph (South)    
Max Wind Speed 20 mph    
Max Gust Speed 20 mph    
Visibility 8 miles    
Events Rain    
Averages and records for this station are not official NWS values.
T = Trace of Precipitation, MM = Missing Value Source: NWS Daily Summary

Daily Weather History Graph

Daily Weather History Graph

Search for Another Location

Airport or City:

Trip Planner

Search our weather history database for the weather conditions in past years. The results will help you decide how hot, cold, wet, or windy it might be!

Date:

Astronomy

Nov. 22, 2011 Rise Set
Actual Time 6:16 AM CST 4:41 PM CST
Civil Twilight 5:50 AM CST 5:07 PM CST
Nautical Twilight 5:20 AM CST 5:37 PM CST
Astronomical Twilight 4:51 AM CST 6:06 PM CST
Moon 3:13 AM CST (11/22) 2:34 PM CST (11/22)
Length of Visible Light 11h 17m
Length of Day
10h 25m
Waning Crescent, 9% of the Moon is Illuminated
Nov 22
Waning Crescent
Nov 25
New
Dec 2
First Quarter
Dec 10
Full
Dec 17
Last Quarter

Hourly Weather History & Observations

Time (CST) Temp. Heat Index Dew Point Humidity Pressure Visibility Wind Dir Wind Speed Gust Speed Precip Events Conditions
12:55 AM 61.2 °F - 60.3 °F 97% 30.11 in 10.0 mi Calm Calm - N/A   Clear
1:55 AM 59.0 °F - 58.3 °F 97% 30.11 in 10.0 mi Calm Calm - N/A   Clear
2:55 AM 59.0 °F - 57.6 °F 95% 30.10 in 10.0 mi ESE 3.5 mph - N/A   Clear
3:55 AM 61.2 °F - 59.2 °F 93% 30.10 in 10.0 mi SE 3.5 mph - N/A   Mostly Cloudy
4:55 AM 60.6 °F - 58.5 °F 93% 30.11 in 10.0 mi East 3.5 mph - N/A   Clear
5:55 AM 60.1 °F - 58.5 °F 94% 30.10 in 10.0 mi SE 3.5 mph - N/A   Clear
6:55 AM 62.1 °F - 60.6 °F 95% 30.12 in 10.0 mi SE 4.6 mph - N/A   Scattered Clouds
7:00 AM 62.6 °F - 60.8 °F 94% 30.12 in 10.0 mi SE 4.6 mph - N/A   Mostly Cloudy
7:06 AM 62.6 °F - 60.8 °F 94% 30.12 in 10.0 mi SE 4.6 mph - N/A   Mostly Cloudy
7:23 AM 62.6 °F - 60.8 °F 94% 30.12 in 10.0 mi SE 5.8 mph - N/A   Overcast
7:34 AM 62.6 °F - 62.6 °F 100% 30.12 in 10.0 mi SE 5.8 mph - N/A   Overcast
7:43 AM 64.4 °F - 62.6 °F 94% 30.12 in 9.0 mi SE 6.9 mph - N/A   Overcast
7:49 AM 64.4 °F - 62.6 °F 94% 30.12 in 6.0 mi SE 8.1 mph - N/A   Overcast
7:55 AM 64.0 °F - 62.6 °F 95% 30.12 in 4.0 mi SE 5.8 mph - N/A   Overcast
8:11 AM 64.4 °F - 64.4 °F 100% 30.12 in 3.0 mi SSE 8.1 mph - N/A   Overcast
8:16 AM 64.4 °F - 64.4 °F 100% 30.12 in 2.5 mi SSE 6.9 mph - N/A   Overcast
8:22 AM 64.4 °F - 64.4 °F 100% 30.13 in 1.8 mi SSE 6.9 mph - N/A   Overcast
8:26 AM 64.4 °F - 64.4 °F 100% 30.13 in 1.2 mi SSE 5.8 mph - N/A   Overcast
8:30 AM 66.2 °F - 64.4 °F 94% 30.13 in 1.0 mi SE 6.9 mph - N/A   Overcast
8:46 AM 66.2 °F - 64.4 °F 94% 30.13 in 1.2 mi South 8.1 mph - N/A   Overcast
8:50 AM 66.2 °F - 64.4 °F 94% 30.13 in 1.5 mi South 8.1 mph - N/A   Overcast
8:55 AM 66.2 °F - 65.3 °F 97% 30.13 in 1.8 mi South 6.9 mph - N/A   Overcast
8:57 AM 66.2 °F - 64.4 °F 94% 30.13 in 2.0 mi SSE 5.8 mph - N/A   Overcast
9:03 AM 66.2 °F - 66.2 °F 100% 30.13 in 3.0 mi SSE 5.8 mph - N/A   Overcast
9:19 AM 68.0 °F - 66.2 °F 94% 30.14 in 9.0 mi South 5.8 mph - N/A   Overcast
9:35 AM 68.0 °F - 66.2 °F 94% 30.14 in 10.0 mi South 5.8 mph - N/A   Overcast
9:41 AM 68.0 °F - 66.2 °F 94% 30.14 in 10.0 mi South 5.8 mph - N/A   Overcast
9:55 AM 68.9 °F - 67.3 °F 95% 30.13 in 10.0 mi SSE 6.9 mph - N/A   Overcast
9:56 AM 69.8 °F - 68.0 °F 94% 30.13 in 10.0 mi South 6.9 mph - N/A   Overcast
10:21 AM 71.6 °F - 68.0 °F 88% 30.12 in 10.0 mi South 6.9 mph - N/A   Overcast
10:33 AM 73.4 °F - 68.0 °F 83% 30.12 in 10.0 mi South 10.4 mph - N/A   Overcast
10:40 AM 73.4 °F - 68.0 °F 83% 30.11 in 10.0 mi South 10.4 mph - N/A   Overcast
10:55 AM 74.8 °F - 67.8 °F 79% 30.10 in 10.0 mi South 11.5 mph - N/A   Mostly Cloudy
11:13 AM 75.2 °F - 68.0 °F 78% 30.09 in 10.0 mi South 16.1 mph - N/A   Mostly Cloudy
11:48 AM 77.0 °F - 68.0 °F 74% 30.06 in 10.0 mi South 15.0 mph 19.6 mph N/A   Scattered Clouds
11:55 AM 77.9 °F - 66.9 °F 69% 30.06 in 10.0 mi South 15.0 mph - N/A   Scattered Clouds
12:55 PM 80.8 °F 82.9 °F 66.0 °F 61% 30.02 in 10.0 mi South 13.8 mph - N/A   Scattered Clouds
1:55 PM 80.6 °F 82.4 °F 65.3 °F 59% 30.00 in 10.0 mi SSW 19.6 mph - N/A   Scattered Clouds
2:55 PM 79.5 °F - 65.5 °F 62% 29.99 in 10.0 mi SSW 17.3 mph - N/A   Clear
3:55 PM 77.9 °F - 66.2 °F 67% 29.99 in 10.0 mi South 15.0 mph - N/A   Clear
4:55 PM 75.0 °F - 66.4 °F 74% 29.99 in 10.0 mi South 9.2 mph - N/A   Scattered Clouds
5:55 PM 73.8 °F - 67.5 °F 81% 30.01 in 10.0 mi SSW 10.4 mph - N/A   Clear
6:40 PM 73.4 °F - 68.0 °F 83% 30.01 in 10.0 mi South 9.2 mph - N/A Rain Light Rain
6:50 PM 73.4 °F - 68.0 °F 83% 30.01 in 10.0 mi South 9.2 mph - N/A   Scattered Clouds
6:52 PM 73.4 °F - 68.0 °F 83% 30.01 in 10.0 mi South 9.2 mph - N/A Rain Light Rain
6:55 PM 72.9 °F - 68.5 °F 86% 30.01 in 10.0 mi South 10.4 mph - 0.00 in Rain Light Rain
7:13 PM 71.6 °F - 69.8 °F 94% 30.02 in 10.0 mi SSW 10.4 mph - N/A   Scattered Clouds
7:55 PM 70.9 °F - 69.1 °F 94% 30.03 in 10.0 mi SSW 4.6 mph - 0.03 in   Mostly Cloudy
8:55 PM 70.0 °F - 68.9 °F 96% 30.02 in 10.0 mi South 6.9 mph - N/A   Scattered Clouds
9:55 PM 67.5 °F - 66.4 °F 96% 30.03 in 10.0 mi SSW 5.8 mph - N/A   Scattered Clouds
10:12 PM 68.0 °F - 66.2 °F 94% 30.03 in 10.0 mi SSW 6.9 mph - N/A   Mostly Cloudy
10:42 PM 68.0 °F - 66.2 °F 94% 30.04 in 10.0 mi SW 4.6 mph - N/A   Overcast
10:52 PM 68.0 °F - 66.2 °F 94% 30.03 in 10.0 mi SSW 3.5 mph - N/A   Overcast
10:53 PM 68.0 °F - 66.2 °F 94% 30.03 in 10.0 mi Calm Calm - N/A   Overcast
10:55 PM 67.6 °F - 66.6 °F 96% 30.02 in 10.0 mi Calm Calm - N/A   Overcast
10:59 PM 68.0 °F - 66.2 °F 94% 30.03 in 10.0 mi WSW 3.5 mph - N/A   Overcast
11:01 PM 68.0 °F - 66.2 °F 94% 30.03 in 10.0 mi WSW 3.5 mph - N/A   Overcast
11:05 PM 68.0 °F - 66.2 °F 94% 30.03 in 10.0 mi Calm Calm - N/A   Overcast
11:12 PM 68.0 °F - 66.2 °F 94% 30.03 in 10.0 mi Calm Calm - N/A   Overcast
11:17 PM 68.0 °F - 66.2 °F 94% 30.04 in 10.0 mi Calm Calm - N/A   Overcast
11:22 PM 68.0 °F - 66.2 °F 94% 30.04 in 10.0 mi West 3.5 mph - N/A   Overcast
11:48 PM 68.0 °F - 68.0 °F 100% 30.04 in 9.0 mi West 4.6 mph - N/A Rain Light Rain
11:53 PM 68.0 °F - 68.0 °F 100% 30.04 in 8.0 mi West 4.6 mph - N/A Rain Light Rain
11:55 PM 68.0 °F - 67.1 °F 97% 30.04 in 8.0 mi West 3.5 mph - 0.00 in Rain Light Rain